Flag for Bosnia-Herzegovina Weather past 2 weeks in Sarajevo, Bosnia-Herzegovina

Now
61 °F

Light rain. Passing clouds.


Feels Like: 61 °F
Forecast: 62 / 67 °F
Wind: 6 mph from West

Location: Sarajevo / Butmir

Current Time: Sep 2, 2014 at 9:31:39 PM

Latest Report: Sep 2, 2014 at 9:00 PM


Visibility: 5 mi

Pressure: 29.86 "Hg

Humidity: 94%

Dew point: 59 °F

Location of SarajevoLocation

Historic Weather in Sarajevo — Graph

°F

Sarajevo temperature yesterday

Maximum temperature yesterday: 77 °F (at 1:30 PM)
Minimum temperature yesterday: 57 °F (at 3:00 AM)
Average temperature yesterday: 64 °F

Past Weeks' High & Low Weather Summary

 TemperatureHumidityPressure
High82 °F (Aug 20, 5:30 PM)100% (Aug 21, 5:30 AM)30.18 "Hg (Aug 21, 5:30 AM)
Low48 °F (Aug 29, 5:00 AM)37% (Aug 19, 4:00 PM)29.71 "Hg (Sep 1, 1:30 PM)
Average65 °F76%30.01 "Hg
* Reported Aug 18 8:00 PM — Sep 2 8:30 PM, Sarajevo, Weather by CustomWeather, © 2014

Note: Actual official high and low records may vary slightly from our data, if they occured in-between our weather recording intervals... More about our weather records

Advertising

Sarajevo weather history for previous 24 hours

 ConditionsComfort  
Time TempWeatherWind HumidityBarometerVisibility
8:30 PM
Sep 2
61 °FLight rain. Passing clouds.7 mph94%29.86 "Hg5 mi
8:00 PM61 °FRain. Partly sunny.5 mph94%29.86 "Hg4 mi
7:30 PM61 °FLight rain. Partly sunny.6 mph94%29.83 "Hg4 mi
7:00 PM61 °FLight rain. Partly sunny.6 mph94%29.83 "Hg4 mi
6:30 PM61 °FRain. Partly sunny.6 mph94%29.83 "Hg4 mi
6:00 PM61 °FRain. Broken clouds.8 mph94%29.83 "Hg4 mi
5:30 PM61 °FLight rain. Broken clouds.5 mph94%29.83 "Hg4 mi
5:00 PM61 °FLight rain. Broken clouds.7 mph94%29.83 "Hg4 mi
4:30 PM61 °FRain. Broken clouds.7 mph94%29.83 "Hg4 mi
4:00 PM61 °FRain. Broken clouds.8 mph94%29.83 "Hg4 mi
3:30 PM63 °FLight rain. Broken clouds.7 mph88%29.83 "Hg5 mi
3:00 PM63 °FBroken clouds.8 mph88%29.83 "HgN/A
2:30 PM64 °FBroken clouds.9 mph88%29.83 "HgN/A
2:00 PM64 °FBroken clouds.7 mph88%29.83 "HgN/A
1:30 PM63 °FBroken clouds.7 mph88%29.83 "HgN/A
1:00 PM63 °FBroken clouds.7 mph94%29.80 "HgN/A
12:30 PM63 °FLight rain. Broken clouds.7 mph94%29.83 "Hg5 mi
12:00 PM63 °FLight rain. Broken clouds.6 mph88%29.83 "Hg4 mi
11:30 AM61 °FLight rain. Broken clouds.3 mph94%29.80 "Hg4 mi
11:00 AM61 °FSprinkles. Broken clouds.7 mph94%29.80 "Hg4 mi
10:30 AM61 °FBroken clouds.7 mph94%29.80 "HgN/A
10:00 AM61 °FDrizzle. Broken clouds.6 mph94%29.80 "Hg5 mi
9:30 AM61 °FDrizzle. More clouds than sun.5 mph94%29.80 "Hg4 mi
9:00 AM61 °FLight rain. More clouds than sun.6 mph94%29.80 "Hg4 mi
8:30 AM61 °FLight rain. More clouds than sun.5 mph94%29.80 "Hg4 mi
8:00 AM61 °FLight rain. Broken clouds.3 mph94%29.80 "Hg4 mi
7:30 AM61 °FBroken clouds.2 mph94%29.80 "Hg5 mi
7:00 AM61 °FPartly cloudy.2 mph94%29.77 "Hg5 mi
6:30 AM61 °FPartly cloudy.2 mph94%29.77 "Hg5 mi
6:00 AM61 °FPartly cloudy.5 mph94%29.77 "Hg5 mi
5:30 AM61 °FPartly cloudy.5 mph94%29.77 "Hg5 mi
5:00 AM61 °FPassing clouds.5 mph94%29.77 "Hg5 mi
4:00 AM61 °FPassing clouds.2 mph94%29.80 "HgN/A
3:00 AM61 °FPartly cloudy.3 mph94%29.80 "HgN/A
2:00 AM61 °FPartly cloudy.2 mph94%29.77 "HgN/A
1:00 AM61 °FPassing clouds.2 mph94%29.80 "HgN/A
12:00 AM61 °FPassing clouds.3 mph100%29.80 "HgN/A
11:00 PM
Sep 1
61 °FThunderstorms. Passing clouds.3 mph100%29.80 "Hg3 mi
10:30 PM61 °FThunderstorms. Passing clouds.2 mph100%29.80 "Hg4 mi
10:00 PM61 °FRain. Partly cloudy.1 mph100%29.80 "Hg4 mi
9:30 PM61 °FThunderstorms. Passing clouds.1 mph100%29.77 "Hg3 mi
9:00 PM61 °FRain. Partly cloudy.1 mph100%29.77 "Hg4 mi
Weather by CustomWeather, © 2014

See weather overviewHow to use our weather pages